Weather in Potashka

Russia / Sverdlovsk Oblast     56°13′46″N   58°47′55″E
temp.,
°C
wind,
m/s
gust,
m/s
humid.,
%
clouds,
%
prec.,
mm/h
press.,
hPa
HPBL,
m
17 may, mon
mon1723:00+19sw37535 0.0 1019105
02:00+17ssw385836 0.0 1018147
05:00+17sw38561 0.0 1019174
08:00+21ssw494648 0.0 1018293
11:00+26wsw7103495 0.0 10181170
14:00+29wsw712255 0.0 10173328
17:00+29w611305 0.0 10163596
20:00+24w612464 0.0 1015713
18 may, tue
tue1823:00+17nw117849 1.4 101615
02:00+16sw1185100 3.4 101616
05:00+14sw249262 3.5 101672
08:00+18wnw357413 0.0 1017345
11:00+22nw57520 0.0 10171411
14:00+23nw56410 0.0 10171966
17:00+23n553733 0.0 10172306
20:00+17ne586474 0.0 1019703
19 may, wed
wed1923:00+12ene511780 0.0 1022551
02:00+10ene27890 0.0 1023195
05:00+9ene39840 0.0 1024227
08:00+13e47630 0.0 1025783
11:00+17e45455 0.0 10251205
14:00+21e34356 0.0 10241606
17:00+22e333243 0.0 10231791
20:00+18ese225013 0.0 102324
20 may, thu
thu2023:00+13ese226247 0.0 102419
02:00+11ese226815 0.0 102513
05:00+10se11710 0.0 102610
08:00+16sse12530 0.0 1025233
11:00+21s11370 0.0 10241131
14:00+23ssw22300 0.0 10231600
17:00+24sw22300 0.0 10221664
20:00+20wsw11480 0.0 102111
21 may, fri
fri2123:00+15ese11560 0.0 102110
02:00+13sse22602 0.0 102111
05:00+12se11582 0.0 102110
08:00+18sse23445 0.0 1021219
11:00+23s35300 0.0 10201448
14:00+25ssw45265 0.0 10191895
17:00+25ssw36260 0.0 10182114
20:00+21ssw234351 0.0 101848